Time,TemperatureF,DewpointF,PressureIn,WindDirection,WindDirectionDegrees,WindSpeedMPH,WindSpeedGustMPH,Humidity,HourlyPrecipIn,Conditions,Clouds,dailyrainin,SoftwareType,DateUTC
2013-08-19 00:01:00,64.6,62.5,30.03,SE,138,0.0,0.0,93,0.00,CLR,SKC,0.00,WeatherDisplay:10.37,2013-08-19 05:01:00,
2013-08-19 00:07:00,64.5,62.4,30.02,SE,127,1.2,0.0,93,0.00,CLR,SKC,0.00,WeatherDisplay:10.37,2013-08-19 05:07:00,
2013-08-19 00:12:00,64.4,62.3,30.02,SE,131,1.1,0.0,93,0.00,CLR,SKC,0.00,WeatherDisplay:10.37,2013-08-19 05:12:00,
2013-08-19 00:17:00,64.4,62.3,30.02,SE,128,1.2,1.2,93,0.00,CLR,SKC,0.00,WeatherDisplay:10.37,2013-08-19 05:17:00,
2013-08-19 00:22:00,64.5,62.4,30.02,SE,134,1.1,0.0,93,0.00,CLR,SKC,0.00,WeatherDisplay:10.37,2013-08-19 05:22:00,
2013-08-19 00:27:00,64.6,62.2,30.01,SE,131,1.2,1.2,92,0.00,CLR,SKC,0.00,WeatherDisplay:10.37,2013-08-19 05:27:00,
2013-08-19 00:32:00,64.8,62.4,30.01,SSE,147,3.5,3.5,92,0.00,CLR,SKC,0.00,WeatherDisplay:10.37,2013-08-19 05:32:00,
2013-08-19 00:37:00,65.2,62.5,30.01,SSE,148,2.3,2.3,91,0.00,CLR,SKC,0.00,WeatherDisplay:10.37,2013-08-19 05:37:00,
2013-08-19 00:42:00,65.4,62.7,30.01,ESE,119,1.2,0.0,91,0.00,CLR,SKC,0.00,WeatherDisplay:10.37,2013-08-19 05:42:00,
2013-08-19 00:47:00,65.3,62.6,30.01,SE,133,1.2,0.0,91,0.00,CLR,SKC,0.00,WeatherDisplay:10.37,2013-08-19 05:47:00,
2013-08-19 00:52:00,65.3,62.6,30.01,ESE,105,2.3,2.3,91,0.00,CLR,SKC,0.00,WeatherDisplay:10.37,2013-08-19 05:52:00,
2013-08-19 00:57:00,65.3,62.3,30.00,ESE,114,2.3,2.3,90,0.00,CLR,SKC,0.00,WeatherDisplay:10.37,2013-08-19 05:57:00,
2013-08-19 01:02:00,65.2,62.2,30.00,ESE,113,2.3,2.3,90,0.00,CLR,SKC,0.00,WeatherDisplay:10.37,2013-08-19 06:02:00,
2013-08-19 01:07:00,65.0,62.3,30.00,SE,126,2.3,2.3,91,0.00,CLR,SKC,0.00,WeatherDisplay:10.37,2013-08-19 06:07:00,
2013-08-19 01:12:00,65.0,62.3,30.00,SE,130,2.3,2.3,91,0.00,CLR,SKC,0.00,WeatherDisplay:10.37,2013-08-19 06:12:00,
2013-08-19 01:17:00,64.9,62.2,30.00,ESE,113,3.2,3.2,91,0.00,CLR,SKC,0.00,WeatherDisplay:10.37,2013-08-19 06:17:00,
2013-08-19 01:22:00,64.8,62.1,29.99,ESE,117,3.2,3.2,91,0.00,CLR,SKC,0.00,WeatherDisplay:10.37,2013-08-19 06:22:00,
2013-08-19 01:27:00,64.7,62.0,29.99,SE,126,3.5,3.5,91,0.00,CLR,SKC,0.00,WeatherDisplay:10.37,2013-08-19 06:27:00,
2013-08-19 01:32:00,64.6,61.9,29.99,ESE,119,2.3,2.3,91,0.00,CLR,SKC,0.00,WeatherDisplay:10.37,2013-08-19 06:32:00,
2013-08-19 01:37:00,64.4,61.7,29.99,ESE,122,2.3,2.3,91,0.00,CLR,SKC,0.00,WeatherDisplay:10.37,2013-08-19 06:37:00,
2013-08-19 01:42:00,64.2,61.5,29.99,SE,124,2.1,2.1,91,0.00,CLR,SKC,0.00,WeatherDisplay:10.37,2013-08-19 06:42:00,
2013-08-19 01:47:00,64.1,61.7,29.99,SE,136,2.3,2.3,92,0.00,CLR,SKC,0.00,WeatherDisplay:10.37,2013-08-19 06:47:00,
2013-08-19 01:52:00,64.1,61.7,29.99,ESE,123,2.1,2.1,92,0.00,CLR,SKC,0.00,WeatherDisplay:10.37,2013-08-19 06:52:00,
2013-08-19 01:57:00,64.0,61.6,29.98,ESE,116,2.3,2.3,92,0.00,CLR,SKC,0.00,WeatherDisplay:10.37,2013-08-19 06:57:00,
2013-08-19 02:02:00,63.9,61.5,29.98,SE,128,1.2,1.2,92,0.00,CLR,SKC,0.00,WeatherDisplay:10.37,2013-08-19 07:02:00,
2013-08-19 02:07:00,63.8,61.4,29.98,ESE,115,2.3,2.3,92,0.00,CLR,SKC,0.00,WeatherDisplay:10.37,2013-08-19 07:07:00,
2013-08-19 02:12:00,63.8,61.4,29.98,ESE,116,2.3,2.3,92,0.00,CLR,SKC,0.00,WeatherDisplay:10.37,2013-08-19 07:12:00,
2013-08-19 02:17:00,63.8,61.4,29.98,ESE,115,3.5,3.5,92,0.00,CLR,SKC,0.00,WeatherDisplay:10.37,2013-08-19 07:17:00,
2013-08-19 02:22:00,63.9,61.5,29.98,SE,127,2.3,2.3,92,0.00,CLR,SKC,0.00,WeatherDisplay:10.37,2013-08-19 07:22:00,
2013-08-19 02:27:00,64.0,61.6,29.98,SE,127,2.3,2.3,92,0.00,CLR,SKC,0.00,WeatherDisplay:10.37,2013-08-19 07:27:00,
2013-08-19 02:32:00,64.0,61.6,29.98,ESE,121,2.3,2.3,92,0.00,CLR,SKC,0.00,WeatherDisplay:10.37,2013-08-19 07:32:00,
2013-08-19 02:37:00,63.9,61.5,29.98,SE,135,2.1,2.1,92,0.00,CLR,SKC,0.00,WeatherDisplay:10.37,2013-08-19 07:37:00,
2013-08-19 02:42:00,63.9,61.5,29.98,SE,127,2.3,2.3,92,0.00,CLR,SKC,0.00,WeatherDisplay:10.37,2013-08-19 07:42:00,
2013-08-19 02:47:00,63.9,61.5,29.98,SE,134,2.3,2.3,92,0.00,CLR,SKC,0.00,WeatherDisplay:10.37,2013-08-19 07:47:00,
2013-08-19 02:52:00,64.0,61.3,29.98,SE,126,2.3,2.3,91,0.00,CLR,SKC,0.00,WeatherDisplay:10.37,2013-08-19 07:52:00,
2013-08-19 02:57:00,63.9,61.2,29.98,ESE,119,2.3,2.3,91,0.00,CLR,SKC,0.00,WeatherDisplay:10.37,2013-08-19 07:57:00,
2013-08-19 03:02:00,64.0,61.3,29.98,ESE,108,2.1,2.1,91,0.00,CLR,SKC,0.00,WeatherDisplay:10.37,2013-08-19 08:02:00,
2013-08-19 03:07:00,64.0,61.3,29.98,East,100,1.2,1.2,91,0.00,CLR,SKC,0.00,WeatherDisplay:10.37,2013-08-19 08:07:00,
2013-08-19 03:12:00,63.8,61.1,29.98,ESE,116,1.2,1.2,91,0.00,CLR,SKC,0.00,WeatherDisplay:10.37,2013-08-19 08:12:00,
2013-08-19 03:17:00,63.7,61.0,29.98,East,94,1.2,1.2,91,0.00,CLR,SKC,0.00,WeatherDisplay:10.37,2013-08-19 08:17:00,
2013-08-19 03:22:00,63.6,61.2,29.98,East,101,2.3,2.3,92,0.00,CLR,SKC,0.00,WeatherDisplay:10.37,2013-08-19 08:22:00,
2013-08-19 03:27:00,63.7,61.3,29.98,ESE,108,1.2,1.2,92,0.00,CLR,SKC,0.00,WeatherDisplay:10.37,2013-08-19 08:27:00,
2013-08-19 03:32:00,64.0,61.6,29.98,ESE,117,1.2,1.2,92,0.00,CLR,SKC,0.00,WeatherDisplay:10.37,2013-08-19 08:32:00,
2013-08-19 03:37:00,64.2,61.5,29.98,ESE,105,1.2,1.2,91,0.00,CLR,SKC,0.00,WeatherDisplay:10.37,2013-08-19 08:37:00,
2013-08-19 03:42:00,64.2,61.5,29.99,ESE,117,1.2,0.0,91,0.00,CLR,SKC,0.00,WeatherDisplay:10.37,2013-08-19 08:42:00,
2013-08-19 03:47:00,64.2,61.5,29.99,ESE,117,0.0,0.0,91,0.00,CLR,SKC,0.00,WeatherDisplay:10.37,2013-08-19 08:47:00,
2013-08-19 03:52:00,64.3,61.6,29.99,ESE,120,1.2,1.2,91,0.00,CLR,SKC,0.00,WeatherDisplay:10.37,2013-08-19 08:52:00,
2013-08-19 03:57:00,64.5,61.8,29.99,SE,128,3.5,3.5,91,0.00,CLR,SKC,0.00,WeatherDisplay:10.37,2013-08-19 08:57:00,
2013-08-19 04:02:00,64.6,61.9,29.99,SSE,155,1.2,1.2,91,0.00,CLR,SKC,0.00,WeatherDisplay:10.37,2013-08-19 09:02:00,
2013-08-19 04:07:00,64.7,62.0,29.99,SE,124,3.2,3.2,91,0.00,CLR,SKC,0.00,WeatherDisplay:10.37,2013-08-19 09:07:00,
2013-08-19 04:12:00,64.8,61.8,29.99,SE,125,3.2,3.2,90,0.00,CLR,SKC,0.00,WeatherDisplay:10.37,2013-08-19 09:12:00,
2013-08-19 04:17:00,64.9,61.9,29.98,ESE,123,3.5,3.5,90,0.00,CLR,SKC,0.00,WeatherDisplay:10.37,2013-08-19 09:17:00,
2013-08-19 04:22:00,64.9,61.9,29.98,ESE,106,3.5,3.5,90,0.00,CLR,SKC,0.00,WeatherDisplay:10.37,2013-08-19 09:22:00,
2013-08-19 04:27:00,65.0,62.0,29.98,ESE,106,3.2,3.2,90,0.00,CLR,SKC,0.00,WeatherDisplay:10.37,2013-08-19 09:27:00,
2013-08-19 04:32:00,65.0,62.0,29.98,ESE,110,3.2,3.2,90,0.00,CLR,SKC,0.00,WeatherDisplay:10.37,2013-08-19 09:32:00,
2013-08-19 04:37:00,65.0,62.0,29.98,ESE,113,1.2,1.2,90,0.00,CLR,SKC,0.00,WeatherDisplay:10.37,2013-08-19 09:37:00,
2013-08-19 04:42:00,65.0,62.0,29.98,ESE,121,2.3,2.3,90,0.00,CLR,SKC,0.00,WeatherDisplay:10.37,2013-08-19 09:42:00,
2013-08-19 04:47:00,65.0,62.0,29.98,ESE,108,2.3,2.3,90,0.00,CLR,SKC,0.00,WeatherDisplay:10.37,2013-08-19 09:47:00,
2013-08-19 04:52:00,65.0,62.0,29.98,ESE,108,2.3,2.3,90,0.00,CLR,SKC,0.00,WeatherDisplay:10.37,2013-08-19 09:52:00,
2013-08-19 04:57:00,64.9,61.9,29.98,ESE,104,2.1,2.1,90,0.00,CLR,SKC,0.00,WeatherDisplay:10.37,2013-08-19 09:57:00,
2013-08-19 05:02:00,64.8,61.8,29.98,SE,127,1.2,1.2,90,0.00,CLR,SKC,0.00,WeatherDisplay:10.37,2013-08-19 10:02:00,
2013-08-19 05:07:00,64.5,61.8,29.98,SE,129,2.3,2.3,91,0.00,CLR,SKC,0.00,WeatherDisplay:10.37,2013-08-19 10:07:00,
2013-08-19 05:12:00,64.3,61.6,29.98,SE,131,2.3,2.3,91,0.00,CLR,SKC,0.00,WeatherDisplay:10.37,2013-08-19 10:12:00,
2013-08-19 05:17:00,64.2,61.5,29.98,ESE,122,1.2,1.2,91,0.00,CLR,SKC,0.00,WeatherDisplay:10.37,2013-08-19 10:17:00,
2013-08-19 05:22:00,63.9,61.5,29.97,SE,129,2.1,2.1,92,0.00,CLR,SKC,0.00,WeatherDisplay:10.37,2013-08-19 10:22:00,
2013-08-19 05:27:00,63.8,61.4,29.98,ESE,119,2.3,2.3,92,0.00,CLR,SKC,0.00,WeatherDisplay:10.37,2013-08-19 10:27:00,
2013-08-19 05:32:00,63.7,61.3,29.98,SE,124,2.3,2.3,92,0.00,CLR,SKC,0.00,WeatherDisplay:10.37,2013-08-19 10:32:00,
2013-08-19 05:37:00,63.5,61.1,29.97,ESE,122,2.3,2.3,92,0.00,CLR,SKC,0.00,WeatherDisplay:10.37,2013-08-19 10:37:00,
2013-08-19 05:42:00,63.4,61.3,29.97,SE,124,3.5,3.5,93,0.00,CLR,SKC,0.00,WeatherDisplay:10.37,2013-08-19 10:42:00,
2013-08-19 05:47:00,63.4,61.3,29.97,ESE,115,3.5,3.5,93,0.00,CLR,SKC,0.00,WeatherDisplay:10.37,2013-08-19 10:47:00,
2013-08-19 05:53:00,63.5,61.1,29.97,SE,125,2.3,2.3,92,0.00,CLR,SKC,0.00,WeatherDisplay:10.37,2013-08-19 10:53:00,
2013-08-19 05:58:00,63.5,61.1,29.98,SE,125,3.5,3.5,92,0.00,CLR,SKC,0.00,WeatherDisplay:10.37,2013-08-19 10:58:00,
2013-08-19 06:03:00,63.4,61.0,29.97,SE,131,2.3,2.3,92,0.00,CLR,SKC,0.00,WeatherDisplay:10.37,2013-08-19 11:03:00,
2013-08-19 06:08:00,63.3,60.9,29.97,SE,129,1.2,1.2,92,0.00,CLR,SKC,0.00,WeatherDisplay:10.37,2013-08-19 11:08:00,
2013-08-19 06:13:00,63.0,60.9,29.97,ESE,117,2.3,2.3,93,0.00,CLR,SKC,0.00,WeatherDisplay:10.37,2013-08-19 11:13:00,
2013-08-19 06:18:00,63.0,60.9,29.97,SE,136,2.3,2.3,93,0.00,CLR,SKC,0.00,WeatherDisplay:10.37,2013-08-19 11:18:00,
2013-08-19 06:23:00,63.1,61.0,29.97,ESE,109,2.3,2.3,93,0.00,CLR,SKC,0.00,WeatherDisplay:10.37,2013-08-19 11:23:00,
2013-08-19 06:28:00,63.1,61.0,29.98,ESE,120,1.2,1.2,93,0.00,CLR,SKC,0.00,WeatherDisplay:10.37,2013-08-19 11:28:00,
2013-08-19 06:33:00,63.1,61.0,29.98,ESE,120,0.0,0.0,93,0.00,CLR,SKC,0.00,WeatherDisplay:10.37,2013-08-19 11:33:00,
2013-08-19 06:38:00,63.0,60.9,29.98,SE,129,1.2,1.2,93,0.00,CLR,SKC,0.00,WeatherDisplay:10.37,2013-08-19 11:38:00,
2013-08-19 06:43:00,63.1,61.3,29.98,SE,128,2.3,2.3,94,0.00,CLR,SKC,0.00,WeatherDisplay:10.37,2013-08-19 11:43:00,
2013-08-19 06:48:00,63.2,61.4,29.98,SE,131,1.2,0.0,94,0.00,CLR,SKC,0.00,WeatherDisplay:10.37,2013-08-19 11:48:00,
2013-08-19 06:53:00,63.4,61.6,29.98,SE,129,2.3,2.3,94,0.00,CLR,SKC,0.00,WeatherDisplay:10.37,2013-08-19 11:53:00,
2013-08-19 06:58:00,63.5,61.7,29.98,SE,129,3.5,3.5,94,0.00,CLR,SKC,0.00,WeatherDisplay:10.37,2013-08-19 11:58:00,
2013-08-19 07:03:00,63.7,61.6,29.97,SE,124,3.5,3.5,93,0.00,CLR,SKC,0.00,WeatherDisplay:10.37,2013-08-19 12:03:00,
2013-08-19 07:08:00,63.9,61.8,29.98,SE,136,3.5,3.5,93,0.00,CLR,SKC,0.00,WeatherDisplay:10.37,2013-08-19 12:08:00,
2013-08-19 07:13:00,63.9,61.8,29.98,ESE,116,3.5,3.5,93,0.00,CLR,SKC,0.00,WeatherDisplay:10.37,2013-08-19 12:13:00,
2013-08-19 07:18:00,63.9,61.8,29.98,SE,134,3.2,3.2,93,0.00,CLR,SKC,0.00,WeatherDisplay:10.37,2013-08-19 12:18:00,
2013-08-19 07:23:00,63.9,61.8,29.98,SE,127,3.2,3.2,93,0.00,CLR,SKC,0.00,WeatherDisplay:10.37,2013-08-19 12:23:00,
2013-08-19 07:28:00,64.0,61.9,29.98,SE,132,3.2,3.2,93,0.00,CLR,SKC,0.00,WeatherDisplay:10.37,2013-08-19 12:28:00,
2013-08-19 07:33:00,64.1,62.0,29.98,SE,129,2.3,2.3,93,0.00,CLR,SKC,0.00,WeatherDisplay:10.37,2013-08-19 12:33:00,
2013-08-19 07:38:00,64.2,62.1,29.98,ESE,119,2.3,2.3,93,0.00,CLR,SKC,0.00,WeatherDisplay:10.37,2013-08-19 12:38:00,
2013-08-19 07:43:00,64.5,62.4,29.98,ESE,121,3.2,3.2,93,0.00,CLR,SKC,0.00,WeatherDisplay:10.37,2013-08-19 12:43:00,
2013-08-19 07:48:00,64.8,62.4,29.98,SE,132,4.6,4.6,92,0.00,CLR,SKC,0.00,WeatherDisplay:10.37,2013-08-19 12:48:00,
2013-08-19 07:53:00,64.9,62.5,29.98,ESE,121,3.5,3.5,92,0.00,CLR,SKC,0.00,WeatherDisplay:10.37,2013-08-19 12:53:00,
2013-08-19 07:58:00,65.1,62.7,29.98,ESE,119,4.6,4.6,92,0.00,CLR,SKC,0.00,WeatherDisplay:10.37,2013-08-19 12:58:00,
2013-08-19 08:03:00,65.2,62.8,29.98,SSE,159,5.8,5.8,92,0.00,CLR,SKC,0.00,WeatherDisplay:10.37,2013-08-19 13:03:00,
2013-08-19 08:08:00,65.5,62.8,29.98,SE,136,4.6,4.6,91,0.00,CLR,SKC,0.00,WeatherDisplay:10.37,2013-08-19 13:08:00,
2013-08-19 08:13:00,66.2,63.5,29.98,South,184,3.2,3.2,91,0.00,CLR,SKC,0.00,WeatherDisplay:10.37,2013-08-19 13:13:00,
2013-08-19 08:18:00,66.8,63.5,29.98,SSE,156,4.2,4.2,89,0.00,CLR,SKC,0.00,WeatherDisplay:10.37,2013-08-19 13:18:00,
2013-08-19 08:23:00,67.2,63.8,29.98,SE,138,5.8,5.8,89,0.00,CLR,SKC,0.00,WeatherDisplay:10.37,2013-08-19 13:23:00,
2013-08-19 08:28:00,67.7,63.7,29.98,SE,146,5.8,5.8,87,0.00,CLR,SKC,0.00,WeatherDisplay:10.37,2013-08-19 13:28:00,
2013-08-19 08:33:00,68.0,64.0,29.98,SSE,162,5.3,5.3,87,0.00,CLR,SKC,0.00,WeatherDisplay:10.37,2013-08-19 13:33:00,
2013-08-19 08:38:00,68.0,64.0,29.98,South,187,6.4,6.4,87,0.00,CLR,SKC,0.00,WeatherDisplay:10.37,2013-08-19 13:38:00,
2013-08-19 08:43:00,68.2,64.2,29.98,SW,215,5.8,5.8,87,0.00,CLR,SKC,0.00,WeatherDisplay:10.37,2013-08-19 13:43:00,
2013-08-19 08:48:00,68.5,64.1,29.98,SSW,213,4.6,4.6,86,0.00,CLR,SKC,0.00,WeatherDisplay:10.37,2013-08-19 13:48:00,
2013-08-19 08:53:00,68.8,64.4,29.99,SW,227,6.9,6.9,86,0.00,CLR,SKC,0.00,WeatherDisplay:10.37,2013-08-19 13:53:00,
2013-08-19 08:58:00,69.2,64.5,29.98,SE,145,6.4,6.4,85,0.00,CLR,SKC,0.00,WeatherDisplay:10.37,2013-08-19 13:58:00,
2013-08-19 09:03:00,69.3,64.9,29.98,SSE,147,4.6,4.6,86,0.00,CLR,SKC,0.00,WeatherDisplay:10.37,2013-08-19 14:03:00,
2013-08-19 09:08:00,69.6,64.9,29.98,SSW,194,6.9,6.9,85,0.00,CLR,SKC,0.00,WeatherDisplay:10.37,2013-08-19 14:08:00,
2013-08-19 09:13:00,70.1,65.4,29.98,SSE,155,5.8,5.8,85,0.00,CLR,SKC,0.00,WeatherDisplay:10.37,2013-08-19 14:13:00,
2013-08-19 09:18:00,70.7,65.6,29.98,SSE,160,3.5,3.5,84,0.00,CLR,SKC,0.00,WeatherDisplay:10.37,2013-08-19 14:18:00,
2013-08-19 09:23:00,71.3,65.9,29.98,ESE,120,6.9,6.9,83,0.00,CLR,SKC,0.00,WeatherDisplay:10.37,2013-08-19 14:23:00,
2013-08-19 09:28:00,71.7,66.3,29.98,ESE,122,5.8,5.8,83,0.00,CLR,SKC,0.00,WeatherDisplay:10.37,2013-08-19 14:28:00,
2013-08-19 09:33:00,72.2,66.4,29.99,South,169,5.8,5.8,82,0.00,CLR,SKC,0.00,WeatherDisplay:10.37,2013-08-19 14:33:00,
2013-08-19 09:38:00,72.9,66.7,29.98,SE,136,6.9,6.9,81,0.00,CLR,SKC,0.00,WeatherDisplay:10.37,2013-08-19 14:38:00,
2013-08-19 09:43:00,73.3,67.5,29.98,South,183,5.8,5.8,82,0.00,CLR,SKC,0.00,WeatherDisplay:10.37,2013-08-19 14:43:00,
2013-08-19 09:48:00,73.7,66.8,29.98,South,188,7.4,7.4,79,0.00,CLR,SKC,0.00,WeatherDisplay:10.37,2013-08-19 14:48:00,
2013-08-19 09:53:00,74.5,66.8,29.98,SSW,200,7.4,7.4,77,0.00,CLR,SKC,0.00,WeatherDisplay:10.37,2013-08-19 14:53:00,
2013-08-19 09:58:00,75.2,67.5,29.98,SSE,155,9.5,9.5,77,0.00,CLR,SKC,0.00,WeatherDisplay:10.37,2013-08-19 14:58:00,
2013-08-19 10:03:00,75.8,67.3,29.98,South,191,7.4,7.4,75,0.00,CLR,SKC,0.00,WeatherDisplay:10.37,2013-08-19 15:03:00,
2013-08-19 10:08:00,76.3,68.2,29.98,South,170,6.9,6.9,76,0.00,CLR,SKC,0.00,WeatherDisplay:10.37,2013-08-19 15:08:00,
2013-08-19 10:13:00,76.7,67.0,29.98,SSW,198,7.4,7.4,72,0.00,CLR,SKC,0.00,WeatherDisplay:10.37,2013-08-19 15:13:00,
2013-08-19 10:18:00,76.8,67.1,29.98,South,171,9.5,9.5,72,0.00,CLR,SKC,0.00,WeatherDisplay:10.37,2013-08-19 15:18:00,
2013-08-19 10:24:00,76.5,66.4,29.98,SW,224,8.5,8.5,71,0.00,CLR,SKC,0.00,WeatherDisplay:10.37,2013-08-19 15:24:00,
2013-08-19 10:29:00,76.2,66.5,29.98,South,178,9.5,9.5,72,0.00,CLR,SKC,0.00,WeatherDisplay:10.37,2013-08-19 15:29:00,
2013-08-19 10:34:00,76.1,66.4,29.98,SW,226,9.5,9.5,72,0.00,CLR,SKC,0.00,WeatherDisplay:10.37,2013-08-19 15:34:00,
2013-08-19 10:39:00,76.4,66.7,29.98,South,182,9.5,9.5,72,0.00,CLR,SKC,0.00,WeatherDisplay:10.37,2013-08-19 15:39:00,
2013-08-19 10:44:00,77.2,67.5,29.98,SSW,201,10.6,10.6,72,0.00,CLR,SKC,0.00,WeatherDisplay:10.37,2013-08-19 15:44:00,
2013-08-19 10:49:00,77.8,67.6,29.98,ESE,121,6.4,6.4,71,0.00,CLR,SKC,0.00,WeatherDisplay:10.37,2013-08-19 15:49:00,
2013-08-19 10:54:00,77.9,67.3,29.98,South,179,11.7,11.7,70,0.00,CLR,SKC,0.00,WeatherDisplay:10.37,2013-08-19 15:54:00,
2013-08-19 10:59:00,77.9,67.3,29.98,SE,139,10.6,10.6,70,0.00,CLR,SKC,0.00,WeatherDisplay:10.37,2013-08-19 15:59:00,
2013-08-19 11:04:00,77.8,66.4,29.98,South,172,10.6,10.6,68,0.00,CLR,SKC,0.00,WeatherDisplay:10.37,2013-08-19 16:04:00,
2013-08-19 11:09:00,78.0,66.6,29.97,SSW,199,9.5,9.5,68,0.00,CLR,SKC,0.00,WeatherDisplay:10.37,2013-08-19 16:09:00,
2013-08-19 11:14:00,78.1,67.1,29.98,SSW,196,10.6,10.6,69,0.00,CLR,SKC,0.00,WeatherDisplay:10.37,2013-08-19 16:14:00,
2013-08-19 11:19:00,78.4,67.8,29.97,SSE,157,6.9,6.9,70,0.00,CLR,SKC,0.00,WeatherDisplay:10.37,2013-08-19 16:19:00,
2013-08-19 11:24:00,79.1,67.6,29.97,SE,133,10.6,10.6,68,0.00,CLR,SKC,0.00,WeatherDisplay:10.37,2013-08-19 16:24:00,
2013-08-19 11:29:00,79.3,68.2,29.97,SSE,162,8.1,8.1,69,0.00,CLR,SKC,0.00,WeatherDisplay:10.37,2013-08-19 16:29:00,
2013-08-19 11:34:00,79.6,66.8,29.98,SSW,200,10.6,10.6,65,0.00,CLR,SKC,0.00,WeatherDisplay:10.37,2013-08-19 16:34:00,
2013-08-19 11:39:00,79.9,67.5,29.97,SW,224,11.5,11.5,66,0.00,CLR,SKC,0.00,WeatherDisplay:10.37,2013-08-19 16:39:00,
2013-08-19 11:44:00,80.3,67.5,29.98,SSE,155,11.7,11.7,65,0.00,CLR,SKC,0.00,WeatherDisplay:10.37,2013-08-19 16:44:00,
2013-08-19 11:49:00,80.5,67.2,29.97,South,181,11.5,11.5,64,0.00,CLR,SKC,0.00,WeatherDisplay:10.37,2013-08-19 16:49:00,
2013-08-19 11:54:00,80.5,68.1,29.97,South,190,10.6,10.6,66,0.00,CLR,SKC,0.00,WeatherDisplay:10.37,2013-08-19 16:54:00,
2013-08-19 12:00:00,80.4,68.0,29.97,SSE,161,5.0,13.0,66,0.00,CLR,SKC,0.00,WeatherDisplay:10.37,2013-08-19 17:00:00,
2013-08-19 12:05:00,80.5,67.6,29.97,SE,127,10.6,10.6,65,0.00,CLR,SKC,0.00,WeatherDisplay:10.37,2013-08-19 17:05:00,
2013-08-19 12:10:00,80.4,68.4,29.97,SE,140,10.4,10.4,67,0.00,CLR,SKC,0.00,WeatherDisplay:10.37,2013-08-19 17:10:00,
2013-08-19 12:15:00,80.5,69.0,29.96,SSE,155,7.4,7.4,68,0.00,CLR,SKC,0.00,WeatherDisplay:10.37,2013-08-19 17:15:00,
2013-08-19 12:20:00,80.8,68.4,29.96,SE,145,13.8,13.8,66,0.00,CLR,SKC,0.00,WeatherDisplay:10.37,2013-08-19 17:20:00,
2013-08-19 12:25:00,80.9,68.5,29.96,SSE,148,7.4,7.4,66,0.00,CLR,SKC,0.00,WeatherDisplay:10.37,2013-08-19 17:25:00,
2013-08-19 12:30:00,81.1,68.2,29.96,South,171,11.7,11.7,65,0.00,CLR,SKC,0.00,WeatherDisplay:10.37,2013-08-19 17:30:00,
2013-08-19 12:35:00,81.3,68.0,29.96,South,173,12.7,12.7,64,0.00,CLR,SKC,0.00,WeatherDisplay:10.37,2013-08-19 17:35:00,
2013-08-19 12:40:00,81.3,68.9,29.95,SSW,194,7.4,7.4,66,0.00,CLR,SKC,0.00,WeatherDisplay:10.37,2013-08-19 17:40:00,
2013-08-19 12:45:00,81.3,68.4,29.95,SSE,162,10.6,10.6,65,0.00,CLR,SKC,0.00,WeatherDisplay:10.37,2013-08-19 17:45:00,
2013-08-19 12:50:00,81.6,69.6,29.95,SE,146,11.7,11.7,67,0.00,CLR,SKC,0.00,WeatherDisplay:10.37,2013-08-19 17:50:00,
2013-08-19 12:55:00,82.0,69.1,29.94,SSE,149,13.8,13.8,65,0.00,CLR,SKC,0.00,WeatherDisplay:10.37,2013-08-19 17:55:00,
2013-08-19 13:00:00,82.3,69.4,29.94,SE,145,6.9,6.9,65,0.00,CLR,SKC,0.00,WeatherDisplay:10.37,2013-08-19 18:00:00,
2013-08-19 13:05:00,82.3,68.0,29.94,SE,142,14.8,14.8,62,0.00,CLR,SKC,0.00,WeatherDisplay:10.37,2013-08-19 18:05:00,
2013-08-19 13:10:00,82.3,69.4,29.94,SSE,160,12.7,12.7,65,0.00,CLR,SKC,0.00,WeatherDisplay:10.37,2013-08-19 18:10:00,
2013-08-19 13:15:00,82.6,69.2,29.94,SSE,164,8.5,8.5,64,0.00,CLR,SKC,0.00,WeatherDisplay:10.37,2013-08-19 18:15:00,
2013-08-19 13:20:00,82.7,69.3,29.94,SE,146,13.8,13.8,64,0.00,CLR,SKC,0.00,WeatherDisplay:10.37,2013-08-19 18:20:00,
2013-08-19 13:25:00,82.7,69.3,29.93,SE,129,11.7,11.7,64,0.00,CLR,SKC,0.00,WeatherDisplay:10.37,2013-08-19 18:25:00,
2013-08-19 13:30:00,83.0,69.1,29.93,SSE,161,9.5,9.5,63,0.00,CLR,SKC,0.00,WeatherDisplay:10.37,2013-08-19 18:30:00,
2013-08-19 13:35:00,83.3,68.9,29.93,SSE,148,13.8,13.8,62,0.00,CLR,SKC,0.00,WeatherDisplay:10.37,2013-08-19 18:35:00,
2013-08-19 13:40:00,83.4,69.9,29.93,South,184,11.5,11.5,64,0.00,CLR,SKC,0.00,WeatherDisplay:10.37,2013-08-19 18:40:00,
2013-08-19 13:45:00,83.5,68.2,29.93,WSW,249,16.1,16.1,60,0.00,CLR,SKC,0.00,WeatherDisplay:10.37,2013-08-19 18:45:00,
2013-08-19 13:50:00,83.7,69.8,29.93,SSW,195,10.4,10.4,63,0.00,CLR,SKC,0.00,WeatherDisplay:10.37,2013-08-19 18:50:00,
2013-08-19 13:55:00,83.8,68.4,29.93,SSW,195,15.9,15.9,60,0.00,CLR,SKC,0.00,WeatherDisplay:10.37,2013-08-19 18:55:00,
2013-08-19 14:00:00,84.0,69.1,29.93,SE,146,12.7,12.7,61,0.00,CLR,SKC,0.00,WeatherDisplay:10.37,2013-08-19 19:00:00,
2013-08-19 14:05:00,84.1,69.2,29.93,SSW,209,10.6,10.6,61,0.00,CLR,SKC,0.00,WeatherDisplay:10.37,2013-08-19 19:05:00,
2013-08-19 14:10:00,84.2,68.8,29.93,South,174,11.7,11.7,60,0.00,CLR,SKC,0.00,WeatherDisplay:10.37,2013-08-19 19:10:00,
2013-08-19 14:15:00,84.3,69.4,29.92,SSE,150,12.7,12.7,61,0.00,CLR,SKC,0.00,WeatherDisplay:10.37,2013-08-19 19:15:00,
2013-08-19 14:20:00,84.3,69.4,29.92,SE,143,11.7,11.7,61,0.00,CLR,SKC,0.00,WeatherDisplay:10.37,2013-08-19 19:20:00,
2013-08-19 14:25:00,84.4,69.5,29.92,South,172,8.5,8.5,61,0.00,CLR,SKC,0.00,WeatherDisplay:10.37,2013-08-19 19:25:00,
2013-08-19 14:30:00,84.5,69.6,29.92,South,174,11.7,11.7,61,0.00,CLR,SKC,0.00,WeatherDisplay:10.37,2013-08-19 19:30:00,
2013-08-19 14:35:00,84.9,69.5,29.92,South,188,13.8,13.8,60,0.00,CLR,SKC,0.00,WeatherDisplay:10.37,2013-08-19 19:35:00,
2013-08-19 14:40:00,84.7,68.8,29.91,SSW,210,11.5,11.5,59,0.00,CLR,SKC,0.00,WeatherDisplay:10.37,2013-08-19 19:40:00,
2013-08-19 14:45:00,84.6,68.2,29.91,SSE,162,13.8,13.8,58,0.00,CLR,SKC,0.00,WeatherDisplay:10.37,2013-08-19 19:45:00,
2013-08-19 14:50:00,84.6,69.2,29.91,SSW,192,11.7,11.7,60,0.00,CLR,SKC,0.00,WeatherDisplay:10.37,2013-08-19 19:50:00,
2013-08-19 14:55:00,84.9,68.5,29.91,SSW,193,12.7,12.7,58,0.00,CLR,SKC,0.00,WeatherDisplay:10.37,2013-08-19 19:55:00,
2013-08-19 15:00:00,85.1,70.1,29.91,WSW,242,9.2,9.2,61,0.00,CLR,SKC,0.00,WeatherDisplay:10.37,2013-08-19 20:00:00,
2013-08-19 15:05:00,85.2,69.3,29.91,SW,224,10.6,10.6,59,0.00,CLR,SKC,0.00,WeatherDisplay:10.37,2013-08-19 20:05:00,
2013-08-19 15:11:00,85.2,68.2,29.91,SSE,160,16.1,16.1,57,0.00,CLR,SKC,0.00,WeatherDisplay:10.37,2013-08-19 20:11:00,
2013-08-19 15:16:00,85.3,69.8,29.90,SSW,210,12.7,12.7,60,0.00,CLR,SKC,0.00,WeatherDisplay:10.37,2013-08-19 20:16:00,
2013-08-19 15:21:00,85.4,69.9,29.90,South,172,8.1,8.1,60,0.00,CLR,SKC,0.00,WeatherDisplay:10.37,2013-08-19 20:21:00,
2013-08-19 15:26:00,85.2,69.3,29.90,SSW,209,13.8,13.8,59,0.00,CLR,SKC,0.00,WeatherDisplay:10.37,2013-08-19 20:26:00,
2013-08-19 15:31:00,85.2,69.7,29.90,SSE,151,12.7,12.7,60,0.00,CLR,SKC,0.00,WeatherDisplay:10.37,2013-08-19 20:31:00,
2013-08-19 15:36:00,85.5,69.0,29.90,South,187,15.0,15.0,58,0.00,CLR,SKC,0.00,WeatherDisplay:10.37,2013-08-19 20:36:00,
2013-08-19 15:41:00,85.2,68.8,29.90,SW,219,10.6,10.6,58,0.00,CLR,SKC,0.00,WeatherDisplay:10.37,2013-08-19 20:41:00,
2013-08-19 15:46:00,85.0,69.1,29.89,SSW,205,12.7,12.7,59,0.00,CLR,SKC,0.00,WeatherDisplay:10.37,2013-08-19 20:46:00,
2013-08-19 15:51:00,85.3,68.8,29.90,SSW,206,13.8,13.8,58,0.00,CLR,SKC,0.00,WeatherDisplay:10.37,2013-08-19 20:51:00,
2013-08-19 15:56:00,85.3,68.8,29.89,South,180,12.7,12.7,58,0.00,CLR,SKC,0.00,WeatherDisplay:10.37,2013-08-19 20:56:00,
2013-08-19 16:01:00,85.2,69.3,29.89,SSW,213,11.7,11.7,59,0.00,CLR,SKC,0.00,WeatherDisplay:10.37,2013-08-19 21:01:00,
2013-08-19 16:06:00,85.4,68.9,29.89,SSW,198,12.7,12.7,58,0.00,CLR,SKC,0.00,WeatherDisplay:10.37,2013-08-19 21:06:00,
2013-08-19 16:11:00,85.3,68.8,29.89,SSW,206,16.1,16.1,58,0.00,CLR,SKC,0.00,WeatherDisplay:10.37,2013-08-19 21:11:00,
2013-08-19 16:16:00,85.3,68.8,29.88,South,189,13.8,13.8,58,0.00,CLR,SKC,0.00,WeatherDisplay:10.37,2013-08-19 21:16:00,
2013-08-19 16:21:00,85.5,68.5,29.89,SSW,209,16.1,16.1,57,0.00,CLR,SKC,0.00,WeatherDisplay:10.37,2013-08-19 21:21:00,
2013-08-19 16:26:00,85.7,68.2,29.88,SE,131,11.7,11.7,56,0.00,CLR,SKC,0.00,WeatherDisplay:10.37,2013-08-19 21:26:00,
2013-08-19 16:31:00,85.5,68.5,29.88,SSE,166,15.0,15.0,57,0.00,CLR,SKC,0.00,WeatherDisplay:10.37,2013-08-19 21:31:00,
2013-08-19 16:36:00,85.4,68.4,29.88,SSW,207,15.0,15.0,57,0.00,CLR,SKC,0.00,WeatherDisplay:10.37,2013-08-19 21:36:00,
2013-08-19 16:41:00,85.6,69.1,29.88,SW,216,8.5,8.5,58,0.00,CLR,SKC,0.00,WeatherDisplay:10.37,2013-08-19 21:41:00,
2013-08-19 16:46:00,85.6,68.6,29.88,SSW,198,15.9,15.9,57,0.00,CLR,SKC,0.00,WeatherDisplay:10.37,2013-08-19 21:46:00,
2013-08-19 16:51:00,85.9,68.9,29.88,South,176,14.8,14.8,57,0.00,CLR,SKC,0.00,WeatherDisplay:10.37,2013-08-19 21:51:00,
2013-08-19 16:56:00,85.7,69.2,29.88,SSW,198,8.5,8.5,58,0.00,CLR,SKC,0.00,WeatherDisplay:10.37,2013-08-19 21:56:00,
2013-08-19 17:01:00,85.6,68.6,29.88,SSW,213,11.7,11.7,57,0.00,CLR,SKC,0.00,WeatherDisplay:10.37,2013-08-19 22:01:00,
2013-08-19 17:06:00,85.6,69.6,29.88,SSE,158,7.4,7.4,59,0.00,CLR,SKC,0.00,WeatherDisplay:10.37,2013-08-19 22:06:00,
2013-08-19 17:11:00,85.9,69.4,29.88,SSE,165,13.8,13.8,58,0.00,CLR,SKC,0.00,WeatherDisplay:10.37,2013-08-19 22:11:00,
2013-08-19 17:16:00,85.7,68.7,29.88,South,180,12.7,12.7,57,0.00,CLR,SKC,0.00,WeatherDisplay:10.37,2013-08-19 22:16:00,
2013-08-19 17:21:00,85.8,69.3,29.88,South,170,8.5,8.5,58,0.00,CLR,SKC,0.00,WeatherDisplay:10.37,2013-08-19 22:21:00,
2013-08-19 17:26:00,85.8,68.8,29.88,South,177,11.7,11.7,57,0.00,CLR,SKC,0.00,WeatherDisplay:10.37,2013-08-19 22:26:00,
2013-08-19 17:31:00,85.9,69.4,29.88,South,184,8.5,8.5,58,0.00,CLR,SKC,0.00,WeatherDisplay:10.37,2013-08-19 22:31:00,
2013-08-19 17:36:00,85.9,69.4,29.87,SE,131,10.6,10.6,58,0.00,CLR,SKC,0.00,WeatherDisplay:10.37,2013-08-19 22:36:00,
2013-08-19 17:41:00,85.7,68.7,29.87,SSW,195,11.7,11.7,57,0.00,CLR,SKC,0.00,WeatherDisplay:10.37,2013-08-19 22:41:00,
2013-08-19 17:46:00,85.5,69.0,29.87,SSE,150,11.7,11.7,58,0.00,CLR,SKC,0.00,WeatherDisplay:10.37,2013-08-19 22:46:00,
2013-08-19 17:51:00,85.3,68.8,29.87,SSW,201,13.8,13.8,58,0.00,CLR,SKC,0.00,WeatherDisplay:10.37,2013-08-19 22:51:00,
2013-08-19 17:56:00,85.1,69.2,29.87,SSW,198,10.6,10.6,59,0.00,CLR,SKC,0.00,WeatherDisplay:10.37,2013-08-19 22:56:00,
2013-08-19 18:01:00,85.2,68.8,29.87,SSW,203,12.7,12.7,58,0.00,CLR,SKC,0.00,WeatherDisplay:10.37,2013-08-19 23:01:00,
2013-08-19 18:06:00,85.2,69.7,29.87,WSW,241,8.1,8.1,60,0.00,CLR,SKC,0.00,WeatherDisplay:10.37,2013-08-19 23:06:00,
2013-08-19 18:11:00,85.1,69.2,29.87,SW,224,7.4,7.4,59,0.00,CLR,SKC,0.00,WeatherDisplay:10.37,2013-08-19 23:11:00,
2013-08-19 18:16:00,85.1,69.2,29.86,SSE,167,11.5,11.5,59,0.00,CLR,SKC,0.00,WeatherDisplay:10.37,2013-08-19 23:16:00,
2013-08-19 18:21:00,85.0,69.6,29.87,South,187,6.9,6.9,60,0.00,CLR,SKC,0.00,WeatherDisplay:10.37,2013-08-19 23:21:00,
2013-08-19 18:26:00,85.0,70.5,29.86,South,184,6.9,6.9,62,0.00,CLR,SKC,0.00,WeatherDisplay:10.37,2013-08-19 23:26:00,
2013-08-19 18:31:00,84.6,70.1,29.86,SW,221,9.2,9.2,62,0.00,CLR,SKC,0.00,WeatherDisplay:10.37,2013-08-19 23:31:00,
2013-08-19 18:36:00,84.3,70.3,29.86,SE,132,7.4,7.4,63,0.00,CLR,SKC,0.00,WeatherDisplay:10.37,2013-08-19 23:36:00,
2013-08-19 18:41:00,84.2,70.7,29.86,SSE,158,5.3,5.3,64,0.00,CLR,SKC,0.00,WeatherDisplay:10.37,2013-08-19 23:41:00,
2013-08-19 18:46:00,84.1,70.6,29.86,South,179,6.9,6.9,64,0.00,CLR,SKC,0.00,WeatherDisplay:10.37,2013-08-19 23:46:00,
2013-08-19 18:51:00,84.0,71.0,29.86,South,169,8.5,8.5,65,0.00,CLR,SKC,0.00,WeatherDisplay:10.37,2013-08-19 23:51:00,
2013-08-19 18:56:00,83.5,70.9,29.86,SE,137,5.3,5.3,66,0.00,CLR,SKC,0.00,WeatherDisplay:10.37,2013-08-19 23:56:00,
2013-08-19 19:01:00,83.2,71.1,29.86,South,172,7.4,7.4,67,0.00,CLR,SKC,0.00,WeatherDisplay:10.37,2013-08-20 00:01:00,
2013-08-19 19:06:00,82.8,70.7,29.86,SSE,151,4.6,4.6,67,0.00,CLR,SKC,0.00,WeatherDisplay:10.37,2013-08-20 00:06:00,
2013-08-19 19:11:00,82.4,70.8,29.86,SSE,165,3.5,3.5,68,0.00,CLR,SKC,0.00,WeatherDisplay:10.37,2013-08-20 00:11:00,
2013-08-19 19:16:00,82.1,70.5,29.86,SSE,149,3.5,3.5,68,0.00,CLR,SKC,0.00,WeatherDisplay:10.37,2013-08-20 00:16:00,
2013-08-19 19:22:00,81.9,70.7,29.86,SSE,164,4.6,4.6,69,0.00,CLR,SKC,0.00,WeatherDisplay:10.37,2013-08-20 00:22:00,
2013-08-19 19:27:00,81.5,70.3,29.86,SSE,158,4.6,4.6,69,0.00,CLR,SKC,0.00,WeatherDisplay:10.37,2013-08-20 00:27:00,
2013-08-19 19:32:00,81.2,70.5,29.86,ESE,113,4.6,4.6,70,0.00,CLR,SKC,0.00,WeatherDisplay:10.37,2013-08-20 00:32:00,
2013-08-19 19:37:00,80.8,70.5,29.86,SE,139,3.5,3.5,71,0.00,CLR,SKC,0.00,WeatherDisplay:10.37,2013-08-20 00:37:00,
2013-08-19 19:42:00,80.4,70.1,29.86,South,169,6.9,6.9,71,0.00,CLR,SKC,0.00,WeatherDisplay:10.37,2013-08-20 00:42:00,
2013-08-19 19:47:00,79.9,70.1,29.86,SSE,156,3.5,3.5,72,0.00,CLR,SKC,0.00,WeatherDisplay:10.37,2013-08-20 00:47:00,
2013-08-19 19:52:00,79.5,70.1,29.86,ESE,123,5.3,5.3,73,0.00,CLR,SKC,0.00,WeatherDisplay:10.37,2013-08-20 00:52:00,
2013-08-19 19:57:00,79.1,70.1,29.86,SE,136,6.9,6.9,74,0.00,CLR,SKC,0.00,WeatherDisplay:10.37,2013-08-20 00:57:00,
2013-08-19 20:02:00,78.8,69.8,29.86,SE,129,3.5,3.5,74,0.00,CLR,SKC,0.00,WeatherDisplay:10.37,2013-08-20 01:02:00,
2013-08-19 20:07:00,78.4,69.8,29.86,SE,130,4.2,4.2,75,0.00,CLR,SKC,0.00,WeatherDisplay:10.37,2013-08-20 01:07:00,
2013-08-19 20:12:00,78.1,69.5,29.86,ESE,117,4.6,4.6,75,0.00,CLR,SKC,0.00,WeatherDisplay:10.37,2013-08-20 01:12:00,
2013-08-19 20:17:00,77.8,69.6,29.86,ESE,121,5.8,5.8,76,0.00,CLR,SKC,0.00,WeatherDisplay:10.37,2013-08-20 01:17:00,
2013-08-19 20:22:00,77.3,69.5,29.86,SE,138,5.3,5.3,77,0.00,CLR,SKC,0.00,WeatherDisplay:10.37,2013-08-20 01:22:00,
2013-08-19 20:27:00,77.2,69.0,29.86,ESE,120,5.8,5.8,76,0.00,CLR,SKC,0.00,WeatherDisplay:10.37,2013-08-20 01:27:00,
2013-08-19 20:32:00,77.0,69.2,29.86,ESE,106,4.2,4.2,77,0.00,CLR,SKC,0.00,WeatherDisplay:10.37,2013-08-20 01:32:00,
2013-08-19 20:37:00,76.7,69.3,29.86,ESE,121,6.9,6.9,78,0.00,CLR,SKC,0.00,WeatherDisplay:10.37,2013-08-20 01:37:00,
2013-08-19 20:42:00,76.4,69.0,29.86,SE,138,3.5,3.5,78,0.00,CLR,SKC,0.00,WeatherDisplay:10.37,2013-08-20 01:42:00,
2013-08-19 20:47:00,76.2,68.8,29.86,SSE,151,5.3,5.3,78,0.00,CLR,SKC,0.00,WeatherDisplay:10.37,2013-08-20 01:47:00,
2013-08-19 20:52:00,76.1,68.7,29.86,ESE,108,4.6,4.6,78,0.00,CLR,SKC,0.00,WeatherDisplay:10.37,2013-08-20 01:52:00,
2013-08-19 20:57:00,75.9,68.9,29.86,East,97,4.6,4.6,79,0.00,CLR,SKC,0.00,WeatherDisplay:10.37,2013-08-20 01:57:00,
2013-08-19 21:02:00,75.9,68.9,29.87,SE,132,5.8,5.8,79,0.00,CLR,SKC,0.00,WeatherDisplay:10.37,2013-08-20 02:02:00,
2013-08-19 21:07:00,75.8,68.8,29.87,ESE,121,6.9,6.9,79,0.00,CLR,SKC,0.00,WeatherDisplay:10.37,2013-08-20 02:07:00,
2013-08-19 21:12:00,75.5,68.9,29.87,ESE,115,4.6,4.6,80,0.00,CLR,SKC,0.00,WeatherDisplay:10.37,2013-08-20 02:12:00,
2013-08-19 21:17:00,75.4,68.8,29.87,SE,134,6.9,6.9,80,0.00,CLR,SKC,0.00,WeatherDisplay:10.37,2013-08-20 02:17:00,
2013-08-19 21:22:00,75.1,68.9,29.87,ESE,119,5.3,5.3,81,0.00,CLR,SKC,0.00,WeatherDisplay:10.37,2013-08-20 02:22:00,
2013-08-19 21:27:00,74.9,68.7,29.87,SE,139,5.8,5.8,81,0.00,CLR,SKC,0.00,WeatherDisplay:10.37,2013-08-20 02:27:00,
2013-08-19 21:32:00,74.7,68.5,29.88,SE,141,5.8,5.8,81,0.00,CLR,SKC,0.00,WeatherDisplay:10.37,2013-08-20 02:32:00,
2013-08-19 21:37:00,74.5,68.6,29.88,SE,134,6.9,6.9,82,0.00,CLR,SKC,0.00,WeatherDisplay:10.37,2013-08-20 02:37:00,
2013-08-19 21:42:00,74.3,68.4,29.88,SE,132,5.3,5.3,82,0.00,CLR,SKC,0.00,WeatherDisplay:10.37,2013-08-20 02:42:00,
2013-08-19 21:47:00,74.2,68.3,29.88,SE,134,5.8,5.8,82,0.00,CLR,SKC,0.00,WeatherDisplay:10.37,2013-08-20 02:47:00,
2013-08-19 21:52:00,74.0,68.2,29.89,SE,132,2.3,2.3,82,0.00,CLR,SKC,0.00,WeatherDisplay:10.37,2013-08-20 02:52:00,
2013-08-19 21:57:00,73.9,68.1,29.89,SE,139,5.8,5.8,82,0.00,CLR,SKC,0.00,WeatherDisplay:10.37,2013-08-20 02:57:00,
2013-08-19 22:02:00,73.8,68.0,29.89,SE,143,6.4,6.4,82,0.00,CLR,SKC,0.00,WeatherDisplay:10.37,2013-08-20 03:02:00,
2013-08-19 22:07:00,73.7,67.9,29.89,ESE,119,6.9,6.9,82,0.00,CLR,SKC,0.00,WeatherDisplay:10.37,2013-08-20 03:07:00,
2013-08-19 22:12:00,73.7,67.9,29.89,SE,136,4.6,4.6,82,0.00,CLR,SKC,0.00,WeatherDisplay:10.37,2013-08-20 03:12:00,
2013-08-19 22:17:00,73.5,68.0,29.89,ESE,115,5.8,5.8,83,0.00,CLR,SKC,0.00,WeatherDisplay:10.37,2013-08-20 03:17:00,
2013-08-19 22:22:00,73.4,67.9,29.89,SE,141,5.8,5.8,83,0.00,CLR,SKC,0.00,WeatherDisplay:10.37,2013-08-20 03:22:00,
2013-08-19 22:27:00,73.2,67.7,29.89,SSE,156,5.8,5.8,83,0.00,CLR,SKC,0.00,WeatherDisplay:10.37,2013-08-20 03:27:00,
2013-08-19 22:32:00,73.2,67.7,29.89,SSE,154,4.6,4.6,83,0.00,CLR,SKC,0.00,WeatherDisplay:10.37,2013-08-20 03:32:00,
2013-08-19 22:37:00,73.2,67.7,29.89,South,182,5.8,5.8,83,0.00,CLR,SKC,0.00,WeatherDisplay:10.37,2013-08-20 03:37:00,
2013-08-19 22:42:00,73.1,67.6,29.89,SE,131,7.4,7.4,83,0.00,CLR,SKC,0.00,WeatherDisplay:10.37,2013-08-20 03:42:00,
2013-08-19 22:47:00,73.1,68.0,29.89,SSW,196,5.8,5.8,84,0.00,CLR,SKC,0.00,WeatherDisplay:10.37,2013-08-20 03:47:00,
2013-08-19 22:52:00,72.9,67.8,29.89,ESE,120,4.6,4.6,84,0.00,CLR,SKC,0.00,WeatherDisplay:10.37,2013-08-20 03:52:00,
2013-08-19 22:57:00,72.8,67.7,29.89,SE,129,3.5,3.5,84,0.00,CLR,SKC,0.00,WeatherDisplay:10.37,2013-08-20 03:57:00,
2013-08-19 23:01:00,72.7,67.6,29.89,SE,139,4.6,4.6,84,0.00,CLR,SKC,0.00,WeatherDisplay:10.37,2013-08-20 04:01:00,
2013-08-19 23:06:00,72.6,67.8,29.89,SE,131,6.9,6.9,85,0.00,CLR,SKC,0.00,WeatherDisplay:10.37,2013-08-20 04:06:00,
2013-08-19 23:11:00,72.4,67.6,29.89,SSE,148,5.3,5.3,85,0.00,CLR,SKC,0.00,WeatherDisplay:10.37,2013-08-20 04:11:00,
2013-08-19 23:16:00,72.2,67.4,29.89,SSE,151,5.8,5.8,85,0.00,CLR,SKC,0.00,WeatherDisplay:10.37,2013-08-20 04:16:00,
2013-08-19 23:21:00,72.0,67.6,29.89,SSE,154,4.6,4.6,86,0.00,CLR,SKC,0.00,WeatherDisplay:10.37,2013-08-20 04:21:00,
2013-08-19 23:26:00,71.8,67.4,29.89,SE,127,6.9,6.9,86,0.00,CLR,SKC,0.00,WeatherDisplay:10.37,2013-08-20 04:26:00,
2013-08-19 23:31:00,71.5,67.4,29.89,SSE,160,7.4,7.4,87,0.00,CLR,SKC,0.00,WeatherDisplay:10.37,2013-08-20 04:31:00,
2013-08-19 23:36:00,71.4,67.3,29.89,SSE,151,4.6,4.6,87,0.00,CLR,SKC,0.00,WeatherDisplay:10.37,2013-08-20 04:36:00,
2013-08-19 23:41:00,71.3,67.2,29.89,SSE,153,5.8,5.8,87,0.00,CLR,SKC,0.00,WeatherDisplay:10.37,2013-08-20 04:41:00,
2013-08-19 23:46:00,71.1,67.4,29.89,SSW,213,4.6,4.6,88,0.00,CLR,SKC,0.00,WeatherDisplay:10.37,2013-08-20 04:46:00,
2013-08-19 23:51:00,71.0,67.3,29.89,SSE,160,5.8,5.8,88,0.00,CLR,SKC,0.00,WeatherDisplay:10.37,2013-08-20 04:51:00,
2013-08-19 23:56:00,70.9,67.2,29.89,SSE,148,5.8,5.8,88,0.00,CLR,SKC,0.00,WeatherDisplay:10.37,2013-08-20 04:56:00,